Forside
METAR-TAF:

METAR-TAF

Lufthavne :

Austin, Minnesota, USA

Breddekreds: 43-40N, længdekreds: 092-56W, højde: 375 m

Aktuelle vejr

Denne rapport blev lavet for 30 minutter siden, kl. 03:15 UTC
Vind 6 kt fra vestnordvest
Temperatur -6°C
Fugtighed 79%
Tryk 1019 hPa
Sigt: 16.1 km
Overskyet i en højde af 7500 ft

METAR: KAUM 280315Z AUTO 30006KT 10SM OVC075 M06/M09 A3009 RMK AO2

Tid: 21:45 (03:45 UTC)


TAF: fraværende

Vejrobservationer og prognoser fra mere end 4000 lufthavne (METAR og TAF).

De gule og røde prikker repræsenterer de meteorologiske stationer.

Flyt musen over at se navnet på stationen.

Så klik over at se vejr observationer og prognoser.

At skifte det kort: Klik på de grønne knapper med et sort kors for at zoome ind; på den grønne knap med en bindestreg for at zoome ud; eller på de grønne pile for tilstødende kort.


METAR-TAF: